EZY27A LPPR-GCFV

Flight info

Callsign EZY27A
Flight time 2h 14m
Altitude 39000
Route MANIK DCT ESP DCT NAKOS DCT TAKAV DCT VEDOD UN857 TERTO
Aircraft A339/H-SADE1E2E3GHIJ3J5M1P2RWXY/LB2D1

Departure

Time 2026-05-04 14:09
Airport Francisco de Sá Carneiro Airport (LPPR)

Arrival

Time 2026-05-04 16:23
Airport Fuerteventura Airport (GCFV)
Time Latitude Longitude Altitude Speed Heading
2026-05-04 13:54 41.24059 -8.67317 238 ft 0 kts 78°
2026-05-04 14:01 41.24054 -8.67353 242 ft 3 kts 78°
2026-05-04 14:02 41.24051 -8.67368 241 ft 3 kts 82°
2026-05-04 14:02 41.24049 -8.67401 239 ft 3 kts 97°
2026-05-04 14:02 41.24051 -8.67425 238 ft 3 kts 122°
2026-05-04 14:02 41.24052 -8.67431 237 ft 2 kts 135°
2026-05-04 14:03 41.24045 -8.67425 238 ft 2 kts 144°
2026-05-04 14:03 41.24032 -8.67420 236 ft 2 kts 161°
2026-05-04 14:05 41.24025 -8.67418 235 ft 3 kts 167°
2026-05-04 14:05 41.23961 -8.67446 237 ft 19 kts 208°
2026-05-04 14:06 41.23809 -8.67477 236 ft 27 kts 159°
2026-05-04 14:06 41.23569 -8.67410 239 ft 43 kts 169°
2026-05-04 14:06 41.23356 -8.67380 240 ft 15 kts 202°
2026-05-04 14:06 41.23316 -8.67527 242 ft 17 kts 259°
2026-05-04 14:07 41.23307 -8.67589 244 ft 0 kts 259°
2026-05-04 14:07 41.23299 -8.67644 246 ft 13 kts 259°
2026-05-04 14:07 41.23319 -8.67741 246 ft 8 kts 322°
2026-05-04 14:08 41.23413 -8.67767 243 ft 9 kts 347°
2026-05-04 14:08 41.23422 -8.67769 242 ft 4 kts 350°
2026-05-04 14:08 41.23484 -8.67783 239 ft 14 kts 350°
2026-05-04 14:08 41.23692 -8.67839 230 ft 70 kts 348°
2026-05-04 14:09 41.25811 -8.68380 842 ft 198 kts 346°
2026-05-04 14:09 41.27173 -8.68751 2148 ft 196 kts 346°
2026-05-04 14:10 41.29913 -8.69452 4115 ft 211 kts 346°
2026-05-04 14:10 41.31377 -8.69825 5057 ft 219 kts 346°
2026-05-04 14:10 41.32991 -8.70254 5272 ft 246 kts 346°
2026-05-04 14:10 41.34680 -8.70708 5512 ft 249 kts 346°
2026-05-04 14:11 41.36420 -8.71174 5684 ft 260 kts 346°
2026-05-04 14:11 41.39907 -8.72449 5874 ft 259 kts 327°
2026-05-04 14:11 41.41167 -8.74082 6010 ft 257 kts 302°
2026-05-04 14:12 41.41764 -8.76305 6107 ft 257 kts 277°
2026-05-04 14:12 41.41525 -8.78678 6300 ft 265 kts 250°
2026-05-04 14:12 41.38751 -8.81767 8156 ft 276 kts 197°
2026-05-04 14:13 41.36816 -8.82041 9078 ft 283 kts 183°
2026-05-04 14:13 41.34833 -8.81994 10005 ft 287 kts 181°
2026-05-04 14:13 41.32787 -8.81961 10626 ft 301 kts 182°
2026-05-04 14:13 41.30610 -8.82048 10938 ft 324 kts 185°
2026-05-04 14:14 41.28290 -8.82250 11379 ft 339 kts 187°
2026-05-04 14:14 41.23554 -8.82777 12937 ft 347 kts 188°
2026-05-04 14:14 41.21131 -8.83057 13721 ft 351 kts 188°
2026-05-04 14:15 41.16200 -8.83619 15142 ft 358 kts 188°
2026-05-04 14:15 41.11191 -8.84183 16561 ft 365 kts 189°
2026-05-04 14:16 41.06109 -8.84752 17922 ft 372 kts 189°
2026-05-04 14:16 41.03521 -8.85041 18603 ft 376 kts 189°
2026-05-04 14:17 40.98254 -8.85627 19895 ft 381 kts 190°
2026-05-04 14:17 40.95599 -8.85921 20491 ft 384 kts 190°
2026-05-04 14:17 40.90253 -8.86514 21771 ft 391 kts 190°
2026-05-04 14:18 40.87525 -8.86816 22405 ft 394 kts 191°
2026-05-04 14:18 40.81996 -8.87428 23668 ft 401 kts 191°
2026-05-04 14:19 40.76376 -8.88047 24739 ft 408 kts 191°
2026-05-04 14:19 40.73573 -8.88355 25268 ft 411 kts 191°
2026-05-04 14:19 40.70708 -8.88670 25781 ft 415 kts 191°
2026-05-04 14:19 40.67822 -8.88987 26309 ft 418 kts 191°
2026-05-04 14:20 40.64912 -8.89306 26807 ft 422 kts 191°
2026-05-04 14:20 40.61958 -8.89630 27328 ft 425 kts 191°
2026-05-04 14:20 40.58996 -8.89954 27804 ft 429 kts 191°
2026-05-04 14:21 40.52991 -8.90610 28768 ft 435 kts 191°
2026-05-04 14:21 40.49962 -8.90940 29231 ft 439 kts 192°
2026-05-04 14:21 40.46937 -8.91269 29680 ft 442 kts 192°
2026-05-04 14:21 40.43855 -8.91605 30132 ft 445 kts 192°
2026-05-04 14:22 40.40758 -8.91941 30537 ft 448 kts 192°
2026-05-04 14:22 40.37637 -8.92280 30944 ft 451 kts 192°
2026-05-04 14:22 40.34492 -8.92621 31360 ft 454 kts 192°
2026-05-04 14:22 40.31326 -8.92964 31746 ft 458 kts 192°
2026-05-04 14:23 40.24974 -8.93652 32530 ft 463 kts 192°
2026-05-04 14:23 40.21751 -8.94000 32847 ft 466 kts 192°
2026-05-04 14:23 40.18506 -8.94350 33128 ft 468 kts 192°
2026-05-04 14:24 40.15253 -8.94700 33378 ft 470 kts 192°
2026-05-04 14:24 40.12484 -8.94998 33571 ft 472 kts 192°
2026-05-04 14:24 40.09215 -8.95349 33811 ft 473 kts 192°
2026-05-04 14:24 40.05927 -8.95701 34088 ft 472 kts 192°
2026-05-04 14:25 40.02650 -8.96052 34334 ft 472 kts 192°
2026-05-04 14:25 39.96096 -8.96755 34807 ft 472 kts 192°
2026-05-04 14:25 39.92867 -8.97102 35032 ft 472 kts 192°
2026-05-04 14:26 39.89594 -8.97453 35276 ft 472 kts 192°
2026-05-04 14:26 39.86318 -8.97805 35511 ft 472 kts 191°
2026-05-04 14:26 39.83059 -8.98154 35756 ft 472 kts 191°
2026-05-04 14:26 39.79773 -8.98505 36002 ft 471 kts 191°
2026-05-04 14:27 39.76501 -8.98854 36257 ft 471 kts 191°
2026-05-04 14:27 39.73228 -8.99203 36485 ft 471 kts 191°
2026-05-04 14:27 39.70005 -8.99546 36730 ft 470 kts 191°
2026-05-04 14:27 39.66695 -8.99898 36969 ft 470 kts 191°
2026-05-04 14:28 39.63478 -9.00239 37203 ft 470 kts 191°
2026-05-04 14:28 39.60213 -9.00585 37432 ft 470 kts 191°
2026-05-04 14:28 39.56957 -9.00930 37697 ft 469 kts 191°
2026-05-04 14:28 39.53707 -9.01273 37925 ft 469 kts 191°
2026-05-04 14:29 39.47200 -9.01962 38397 ft 469 kts 191°
2026-05-04 14:29 39.40698 -9.02648 38868 ft 468 kts 191°
2026-05-04 14:30 39.37461 -9.02989 39014 ft 468 kts 191°
2026-05-04 14:30 39.34212 -9.03330 39090 ft 466 kts 191°
2026-05-04 14:31 39.24544 -9.04345 39090 ft 466 kts 191°
2026-05-04 14:32 39.11597 -9.05699 39087 ft 465 kts 191°
2026-05-04 14:32 39.05183 -9.06368 39092 ft 464 kts 191°
2026-05-04 14:33 38.98741 -9.07039 39093 ft 464 kts 191°
2026-05-04 14:33 38.92308 -9.07708 39097 ft 464 kts 191°
2026-05-04 14:34 38.85855 -9.08377 39099 ft 464 kts 191°
2026-05-04 14:34 38.79411 -9.09044 39100 ft 463 kts 191°
2026-05-04 14:35 38.73024 -9.09704 39094 ft 463 kts 191°
2026-05-04 14:35 38.66582 -9.10369 39075 ft 463 kts 191°
2026-05-04 14:36 38.60156 -9.11032 39078 ft 463 kts 191°
2026-05-04 14:36 38.53721 -9.11693 39078 ft 463 kts 191°
2026-05-04 14:37 38.47338 -9.12349 39082 ft 463 kts 191°
2026-05-04 14:37 38.40916 -9.13006 39086 ft 463 kts 191°
2026-05-04 14:38 38.34479 -9.13664 39092 ft 462 kts 191°
2026-05-04 14:38 38.28062 -9.14320 39091 ft 462 kts 191°
2026-05-04 14:39 38.21684 -9.14970 39089 ft 462 kts 191°
2026-05-04 14:39 38.15273 -9.15622 39090 ft 462 kts 191°
2026-05-04 14:40 38.05646 -9.16599 39094 ft 462 kts 191°
2026-05-04 14:40 37.99242 -9.17248 39096 ft 461 kts 191°
2026-05-04 14:41 37.92827 -9.17896 39097 ft 462 kts 191°
2026-05-04 14:42 37.80037 -9.19186 39100 ft 461 kts 191°
2026-05-04 14:42 37.73622 -9.19831 39100 ft 461 kts 191°
2026-05-04 14:43 37.67209 -9.20474 39098 ft 461 kts 191°
2026-05-04 14:43 37.60854 -9.21111 39102 ft 461 kts 191°
2026-05-04 14:44 37.54453 -9.21753 39097 ft 461 kts 191°
2026-05-04 14:44 37.48052 -9.22393 39102 ft 461 kts 191°
2026-05-04 14:45 37.42739 -9.22923 39107 ft 461 kts 191°
2026-05-04 14:45 37.36340 -9.23560 39106 ft 460 kts 191°
2026-05-04 14:46 37.29939 -9.24196 39102 ft 460 kts 191°
2026-05-04 14:46 37.23563 -9.24828 39106 ft 460 kts 191°
2026-05-04 14:47 37.17188 -9.25459 39107 ft 459 kts 192°
2026-05-04 14:47 37.10816 -9.26088 39107 ft 458 kts 192°
2026-05-04 14:48 37.04455 -9.26716 39110 ft 457 kts 192°
2026-05-04 14:48 36.98118 -9.27340 39109 ft 456 kts 192°
2026-05-04 14:49 36.91793 -9.27962 39105 ft 455 kts 192°
2026-05-04 14:49 36.85480 -9.28582 39104 ft 454 kts 192°
2026-05-04 14:50 36.79180 -9.29199 39103 ft 454 kts 192°
2026-05-04 14:50 36.72912 -9.29812 39102 ft 453 kts 192°
2026-05-04 14:51 36.66624 -9.30426 39100 ft 453 kts 192°
2026-05-04 14:51 36.60340 -9.31039 39102 ft 452 kts 192°
2026-05-04 14:52 36.54058 -9.31650 39104 ft 451 kts 192°
2026-05-04 14:52 36.47799 -9.32258 39103 ft 451 kts 193°
2026-05-04 14:53 36.41565 -9.32863 39099 ft 450 kts 193°
2026-05-04 14:53 36.35323 -9.33468 39104 ft 449 kts 193°
2026-05-04 14:54 36.29094 -9.34071 39110 ft 448 kts 193°
2026-05-04 14:54 36.22879 -9.34672 39108 ft 447 kts 193°
2026-05-04 14:55 36.16676 -9.35270 39105 ft 446 kts 193°
2026-05-04 14:55 36.10539 -9.35862 39109 ft 445 kts 193°
2026-05-04 14:56 36.04360 -9.36458 39104 ft 445 kts 193°
2026-05-04 14:56 35.98286 -9.37478 39100 ft 435 kts 201°
2026-05-04 14:57 35.92573 -9.39649 39106 ft 424 kts 210°
2026-05-04 14:57 35.87259 -9.42699 39104 ft 420 kts 213°
2026-05-04 14:58 35.82025 -9.45806 39106 ft 420 kts 213°
2026-05-04 14:58 35.76735 -9.48915 39108 ft 420 kts 213°
2026-05-04 14:59 35.71458 -9.52010 39106 ft 420 kts 213°
2026-05-04 15:00 35.63558 -9.56635 39111 ft 420 kts 213°
2026-05-04 15:00 35.58274 -9.59722 39110 ft 420 kts 213°
2026-05-04 15:01 35.50355 -9.64340 39113 ft 420 kts 213°
2026-05-04 15:01 35.45076 -9.67412 39116 ft 419 kts 213°
2026-05-04 15:02 35.39824 -9.70465 39108 ft 420 kts 213°
2026-05-04 15:02 35.34545 -9.73528 39111 ft 420 kts 213°
2026-05-04 15:03 35.29253 -9.76595 39116 ft 420 kts 213°
2026-05-04 15:03 35.23965 -9.79656 39103 ft 420 kts 213°
2026-05-04 15:04 35.18717 -9.82689 39121 ft 420 kts 213°
2026-05-04 15:04 35.13399 -9.85757 39111 ft 420 kts 213°
2026-05-04 15:05 35.08147 -9.88784 39110 ft 420 kts 213°
2026-05-04 15:05 35.02858 -9.91826 39111 ft 420 kts 213°
2026-05-04 15:06 34.97558 -9.94871 39107 ft 419 kts 213°
2026-05-04 15:07 34.89663 -9.99399 39111 ft 419 kts 212°
2026-05-04 15:07 34.84385 -10.02420 39112 ft 419 kts 212°
2026-05-04 15:08 34.79104 -10.05439 39110 ft 419 kts 212°
2026-05-04 15:08 34.73816 -10.08458 39115 ft 418 kts 212°
2026-05-04 15:09 34.68588 -10.11437 39113 ft 418 kts 212°
2026-05-04 15:09 34.63318 -10.14437 39109 ft 418 kts 212°
2026-05-04 15:10 34.55412 -10.18930 39107 ft 417 kts 212°
2026-05-04 15:11 34.47552 -10.23386 39109 ft 417 kts 212°
2026-05-04 15:11 34.42297 -10.26361 39109 ft 417 kts 212°
2026-05-04 15:12 34.37042 -10.29331 39113 ft 416 kts 212°
2026-05-04 15:12 34.31806 -10.32286 39103 ft 416 kts 212°
2026-05-04 15:13 34.26553 -10.35247 39119 ft 416 kts 212°
2026-05-04 15:13 34.21303 -10.38202 39117 ft 416 kts 212°
2026-05-04 15:14 34.16083 -10.41136 39112 ft 416 kts 211°
2026-05-04 15:14 34.10835 -10.44082 39114 ft 415 kts 211°
2026-05-04 15:15 34.05583 -10.47025 39110 ft 415 kts 211°
2026-05-04 15:15 34.00360 -10.49949 39111 ft 415 kts 211°
2026-05-04 15:16 33.92486 -10.54350 39110 ft 416 kts 211°
2026-05-04 15:17 33.84611 -10.58741 39105 ft 416 kts 211°
2026-05-04 15:17 33.76725 -10.63130 39109 ft 416 kts 211°
2026-05-04 15:18 33.71498 -10.66034 39114 ft 416 kts 211°
2026-05-04 15:19 33.63586 -10.70423 39104 ft 417 kts 211°
2026-05-04 15:19 33.55723 -10.74776 39105 ft 417 kts 211°
2026-05-04 15:20 33.50438 -10.77696 39105 ft 417 kts 211°
2026-05-04 15:20 33.45154 -10.80612 39104 ft 418 kts 211°
2026-05-04 15:21 33.39873 -10.83522 39105 ft 418 kts 211°
2026-05-04 15:22 33.31961 -10.87875 39101 ft 418 kts 211°
2026-05-04 15:22 33.24019 -10.92236 39104 ft 418 kts 211°
2026-05-04 15:23 33.18725 -10.95138 39095 ft 419 kts 211°
2026-05-04 15:23 33.13465 -10.98017 39105 ft 419 kts 212°
2026-05-04 15:24 33.02854 -11.03812 39097 ft 419 kts 212°
2026-05-04 15:25 32.97558 -11.06699 39098 ft 418 kts 212°
2026-05-04 15:26 32.89629 -11.11014 39095 ft 418 kts 212°
2026-05-04 15:26 32.81682 -11.15331 39096 ft 418 kts 212°
2026-05-04 15:27 32.73743 -11.19635 39103 ft 418 kts 212°
2026-05-04 15:28 32.65833 -11.23916 39087 ft 418 kts 212°
2026-05-04 15:29 32.58776 -11.27727 39092 ft 417 kts 212°
2026-05-04 15:30 32.40304 -11.37673 39087 ft 416 kts 212°
2026-05-04 15:31 32.32390 -11.41921 39088 ft 416 kts 212°
2026-05-04 15:32 32.19205 -11.48979 39083 ft 415 kts 212°
2026-05-04 15:34 32.06030 -11.56010 39083 ft 415 kts 212°
2026-05-04 15:34 31.98161 -11.60199 39082 ft 415 kts 212°
2026-05-04 15:35 31.90256 -11.64398 39078 ft 415 kts 212°
2026-05-04 15:36 31.82376 -11.68577 39080 ft 415 kts 212°
2026-05-04 15:36 31.77113 -11.71363 39079 ft 415 kts 212°
2026-05-04 15:37 31.71840 -11.74152 39079 ft 415 kts 212°
2026-05-04 15:37 31.66573 -11.76934 39093 ft 415 kts 212°
2026-05-04 15:38 31.61306 -11.79712 39073 ft 415 kts 212°
2026-05-04 15:38 31.56043 -11.82484 39083 ft 415 kts 212°
2026-05-04 15:39 31.50797 -11.85244 39083 ft 414 kts 212°
2026-05-04 15:40 31.42903 -11.89391 39078 ft 414 kts 212°
2026-05-04 15:40 31.37676 -11.92133 39076 ft 414 kts 212°
2026-05-04 15:41 31.32419 -11.94887 39078 ft 413 kts 212°
2026-05-04 15:41 31.27164 -11.97636 39079 ft 413 kts 212°
2026-05-04 15:42 31.21919 -12.00377 39078 ft 413 kts 212°
2026-05-04 15:42 31.16677 -12.03114 39072 ft 413 kts 212°
2026-05-04 15:43 31.11435 -12.05846 39077 ft 412 kts 211°
2026-05-04 15:43 31.06185 -12.08580 39076 ft 412 kts 211°
2026-05-04 15:44 31.00980 -12.11287 39077 ft 412 kts 211°
2026-05-04 15:44 30.95745 -12.14006 39078 ft 411 kts 211°
2026-05-04 15:45 30.90517 -12.16718 39074 ft 411 kts 211°
2026-05-04 15:45 30.85295 -12.19424 39072 ft 411 kts 211°
2026-05-04 15:46 30.80065 -12.22131 39071 ft 410 kts 211°
2026-05-04 15:46 30.74878 -12.24813 39075 ft 410 kts 211°
2026-05-04 15:47 30.69662 -12.27507 39072 ft 409 kts 211°
2026-05-04 15:47 30.64527 -12.30157 39072 ft 409 kts 211°
2026-05-04 15:48 30.59319 -12.32842 39071 ft 409 kts 211°
2026-05-04 15:48 30.51668 -12.37038 39068 ft 403 kts 216°
2026-05-04 15:49 30.46812 -12.40284 39070 ft 403 kts 217°
2026-05-04 15:49 30.41939 -12.43507 39070 ft 403 kts 216°
2026-05-04 15:50 30.37072 -12.46675 39072 ft 403 kts 216°
2026-05-04 15:50 30.32166 -12.49853 39070 ft 403 kts 216°
2026-05-04 15:51 30.27267 -12.53022 39072 ft 403 kts 216°
2026-05-04 15:51 30.22400 -12.56169 39072 ft 403 kts 216°
2026-05-04 15:52 30.17506 -12.59330 39071 ft 403 kts 216°
2026-05-04 15:52 30.15070 -12.60900 38913 ft 398 kts 216°
2026-05-04 15:52 30.12648 -12.62460 38355 ft 396 kts 216°
2026-05-04 15:53 30.10239 -12.64014 37476 ft 398 kts 216°
2026-05-04 15:53 30.07814 -12.65580 36507 ft 400 kts 216°
2026-05-04 15:53 30.05372 -12.67155 35478 ft 403 kts 216°
2026-05-04 15:53 30.02904 -12.68746 34413 ft 407 kts 216°
2026-05-04 15:54 30.00422 -12.70344 33215 ft 411 kts 216°
2026-05-04 15:54 29.97908 -12.71963 31838 ft 418 kts 215°
2026-05-04 15:54 29.95337 -12.73618 30544 ft 425 kts 215°
2026-05-04 15:54 29.92757 -12.75273 29544 ft 423 kts 214°
2026-05-04 15:55 29.90198 -12.76908 28667 ft 417 kts 214°
2026-05-04 15:55 29.87674 -12.78521 27763 ft 412 kts 214°
2026-05-04 15:55 29.85213 -12.80098 26871 ft 408 kts 214°
2026-05-04 15:55 29.82743 -12.81681 25988 ft 404 kts 214°
2026-05-04 15:56 29.80295 -12.83250 25125 ft 400 kts 214°
2026-05-04 15:56 29.77875 -12.84800 24275 ft 397 kts 214°
2026-05-04 15:56 29.75472 -12.86339 23409 ft 393 kts 214°
2026-05-04 15:56 29.73097 -12.87858 22484 ft 388 kts 213°
2026-05-04 15:57 29.70749 -12.89359 21576 ft 383 kts 213°
2026-05-04 15:57 29.68430 -12.90840 20652 ft 379 kts 213°
2026-05-04 15:57 29.66137 -12.92303 19742 ft 375 kts 213°
2026-05-04 15:57 29.63863 -12.93754 18850 ft 371 kts 213°
2026-05-04 15:58 29.61617 -12.95186 17889 ft 367 kts 213°
2026-05-04 15:58 29.59423 -12.96584 16911 ft 363 kts 213°
2026-05-04 15:58 29.57223 -12.97985 15949 ft 359 kts 213°
2026-05-04 15:58 29.55047 -12.99370 14998 ft 355 kts 213°
2026-05-04 15:59 29.52897 -13.00738 14094 ft 351 kts 213°
2026-05-04 15:59 29.50772 -13.02089 13112 ft 347 kts 213°
2026-05-04 15:59 29.48671 -13.03423 12152 ft 343 kts 213°
2026-05-04 15:59 29.46592 -13.04743 11197 ft 339 kts 213°
2026-05-04 16:00 29.44540 -13.06045 10309 ft 335 kts 213°
2026-05-04 16:00 29.42550 -13.07304 9941 ft 315 kts 213°
2026-05-04 16:00 29.40703 -13.08468 9705 ft 290 kts 214°
2026-05-04 16:00 29.39013 -13.09536 9224 ft 276 kts 214°
2026-05-04 16:01 29.37344 -13.10603 8454 ft 274 kts 214°
2026-05-04 16:01 29.35674 -13.11673 7639 ft 275 kts 213°
2026-05-04 16:01 29.34003 -13.12740 6886 ft 274 kts 213°
2026-05-04 16:01 29.32338 -13.13801 6101 ft 273 kts 212°
2026-05-04 16:02 29.30676 -13.14857 5322 ft 271 kts 212°
2026-05-04 16:02 29.29014 -13.15911 4510 ft 271 kts 211°
2026-05-04 16:02 29.25755 -13.17977 3638 ft 277 kts 210°
2026-05-04 16:03 29.24061 -13.19048 3423 ft 276 kts 210°
2026-05-04 16:03 29.22385 -13.20105 3258 ft 275 kts 210°
2026-05-04 16:03 29.20707 -13.21162 3123 ft 276 kts 209°
2026-05-04 16:03 29.19023 -13.22220 3013 ft 275 kts 208°
2026-05-04 16:04 29.17338 -13.23280 3011 ft 277 kts 209°
2026-05-04 16:04 29.13968 -13.25406 3010 ft 277 kts 209°
2026-05-04 16:04 29.12277 -13.26472 3012 ft 277 kts 209°
2026-05-04 16:05 29.10609 -13.27522 3008 ft 278 kts 209°
2026-05-04 16:05 29.08918 -13.28587 3007 ft 276 kts 209°
2026-05-04 16:05 29.05543 -13.30707 3005 ft 276 kts 209°
2026-05-04 16:06 29.03854 -13.31768 3009 ft 276 kts 210°
2026-05-04 16:06 28.99371 -13.34583 3005 ft 275 kts 209°
2026-05-04 16:07 28.97143 -13.35983 3005 ft 276 kts 209°
2026-05-04 16:07 28.92071 -13.39166 3004 ft 277 kts 209°
2026-05-04 16:08 28.90380 -13.40224 3003 ft 277 kts 209°
2026-05-04 16:08 28.85334 -13.43386 3004 ft 277 kts 209°
2026-05-04 16:09 28.81954 -13.45501 3002 ft 275 kts 209°
2026-05-04 16:09 28.78590 -13.47607 3002 ft 275 kts 209°
2026-05-04 16:10 28.75201 -13.49724 3001 ft 277 kts 209°
2026-05-04 16:11 28.70147 -13.52881 3002 ft 277 kts 210°
2026-05-04 16:11 28.68453 -13.53938 3000 ft 276 kts 209°
2026-05-04 16:12 28.63429 -13.57071 3002 ft 277 kts 209°
2026-05-04 16:12 28.58375 -13.60222 3003 ft 275 kts 209°
2026-05-04 16:13 28.55000 -13.62321 3001 ft 278 kts 209°
2026-05-04 16:13 28.51606 -13.64434 3001 ft 278 kts 209°
2026-05-04 16:14 28.48260 -13.66512 3000 ft 275 kts 209°
2026-05-04 16:14 28.45437 -13.68267 2998 ft 275 kts 209°
2026-05-04 16:15 28.40404 -13.71389 3002 ft 277 kts 209°
2026-05-04 16:16 28.37019 -13.73490 2996 ft 276 kts 209°
2026-05-04 16:16 28.31972 -13.76616 3001 ft 276 kts 209°
2026-05-04 16:17 28.28627 -13.78685 2993 ft 263 kts 209°
2026-05-04 16:18 28.25056 -13.82071 2821 ft 216 kts 259°
2026-05-04 16:18 28.25105 -13.83714 2800 ft 201 kts 291°
2026-05-04 16:19 28.28304 -13.85174 2798 ft 176 kts 10°
2026-05-04 16:19 28.30654 -13.85003 2698 ft 163 kts
2026-05-04 16:20 28.34048 -13.85348 1986 ft 170 kts 352°
2026-05-04 16:20 28.36228 -13.85865 1560 ft 151 kts 351°
2026-05-04 16:21 28.39094 -13.86387 1035 ft 139 kts 359°
2026-05-04 16:22 28.40955 -13.86518 676 ft 128 kts
2026-05-04 16:22 28.43733 -13.86426 142 ft 118 kts
2026-05-04 16:23 28.45668 -13.86361 91 ft 13 kts
2026-05-04 16:24 28.46086 -13.86548 104 ft 11 kts 194°
2026-05-04 16:25 28.45848 -13.86550 98 ft 23 kts 182°